| time (UTC) | temp F | wind direction | speed MPH | gust MPH | rain 1hr in | rain 24hr in | rain mn in | humidity % | barometer mb |
| 20260508134321 | 58 | 228 | 1.0 | 5.0 | 0.00 | 0.00 | 0.00 | 83 | 1016.8 |
| 20260508133820 | 58 | 228 | 1.0 | 5.0 | 0.00 | 0.00 | 0.00 | 83 | 1016.8 |
| 20260508133550 | 58 | 228 | 2.0 | 5.0 | 0.00 | 0.00 | 0.00 | 83 | 1016.8 |
| 20260508132820 | 58 | 228 | 2.0 | 5.0 | 0.00 | 0.00 | 0.00 | 83 | 1016.6 |
| 20260508132318 | 58 | 228 | 1.0 | 3.0 | 0.00 | 0.00 | 0.00 | 83 | 1016.5 |
| 20260508131817 | 58 | 228 | 2.0 | 4.0 | 0.00 | 0.00 | 0.00 | 83 | 1016.5 |
| 20260508131315 | 58 | 228 | 2.0 | 4.0 | 0.00 | 0.00 | 0.00 | 83 | 1016.5 |
| 20260508131045 | 58 | 228 | 1.0 | 3.0 | 0.00 | 0.00 | 0.00 | 83 | 1016.4 |
| 20260508130543 | 58 | 234 | 1.0 | 2.0 | 0.00 | 0.00 | 0.00 | 83 | 1016.3 |
| 20260508130043 | 58 | 234 | 1.0 | 3.0 | 0.00 | 0.00 | 0.00 | 84 | 1016.3 |
| 20260508125313 | 58 | 234 | 1.0 | 5.0 | 0.00 | 0.00 | 0.00 | 84 | 1016.3 |
| 20260508124811 | 58 | 234 | 1.0 | 5.0 | 0.00 | 0.00 | 0.00 | 83 | 1016.2 |
| 20260508124041 | 58 | 234 | 0.0 | 0.0 | 0.00 | 0.00 | 0.00 | 84 | 1016.2 |
| 20260508123309 | 58 | 234 | 0.0 | 2.0 | 0.00 | 0.00 | 0.00 | 84 | 1016.1 |
| 20260508123037 | 58 | 234 | 1.0 | 5.0 | 0.00 | 0.00 | 0.00 | 84 | 1016.0 |
| 20260508121807 | 58 | 234 | 2.0 | 4.0 | 0.00 | 0.00 | 0.00 | 84 | 1016.0 |
| 20260508121308 | 58 | 234 | 2.0 | 4.0 | 0.00 | 0.00 | 0.00 | 84 | 1016.0 |
| 20260508120805 | 58 | 234 | 2.0 | 3.0 | 0.00 | 0.00 | 0.00 | 85 | 1015.8 |
| 20260508120304 | 58 | 234 | 2.0 | 4.0 | 0.00 | 0.00 | 0.00 | 85 | 1015.9 |
| 20260508115758 | 58 | 234 | 2.0 | 4.0 | 0.00 | 0.00 | 0.00 | 85 | 1015.8 |
| 20260508115525 | 58 | 234 | 1.0 | 4.0 | 0.00 | 0.00 | 0.00 | 85 | 1015.8 |
| 20260508114755 | 58 | 234 | 2.0 | 4.0 | 0.00 | 0.00 | 0.00 | 85 | 1015.8 |
| 20260508114253 | 58 | 234 | 2.0 | 4.0 | 0.00 | 0.00 | 0.00 | 85 | 1015.7 |
| 20260508113751 | 58 | 234 | 2.0 | 4.0 | 0.00 | 0.00 | 0.00 | 85 | 1015.7 |
| 20260508113521 | 58 | 234 | 2.0 | 3.0 | 0.00 | 0.00 | 0.00 | 85 | 1015.7 |
| 20260508113019 | 58 | 234 | 2.0 | 4.0 | 0.00 | 0.00 | 0.00 | 85 | 1015.7 |
| 20260508112242 | 57 | 234 | 2.0 | 5.0 | 0.00 | 0.00 | 0.00 | 86 | 1015.7 |
| 20260508112009 | 57 | 234 | 2.0 | 5.0 | 0.00 | 0.00 | 0.00 | 86 | 1015.8 |
| 20260508111239 | 57 | 234 | 2.0 | 5.0 | 0.00 | 0.00 | 0.00 | 86 | 1015.7 |
| 20260508110738 | 58 | 234 | 2.0 | 5.0 | 0.00 | 0.00 | 0.00 | 86 | 1015.7 |
| 20260508110240 | 58 | 234 | 2.0 | 5.0 | 0.00 | 0.00 | 0.00 | 86 | 1015.7 |
| 20260508105738 | 58 | 234 | 2.0 | 5.0 | 0.00 | 0.00 | 0.00 | 86 | 1015.6 |
| 20260508105239 | 58 | 234 | 2.0 | 4.0 | 0.00 | 0.00 | 0.00 | 86 | 1015.7 |
| 20260508104738 | 58 | 234 | 2.0 | 4.0 | 0.00 | 0.00 | 0.00 | 86 | 1015.7 |
| 20260508104237 | 57 | 234 | 1.0 | 3.0 | 0.00 | 0.00 | 0.00 | 86 | 1015.7 |
| 20260508103737 | 58 | 234 | 0.0 | 2.0 | 0.00 | 0.00 | 0.00 | 86 | 1015.8 |
| 20260508103237 | 58 | 234 | 1.0 | 2.0 | 0.00 | 0.00 | 0.00 | 86 | 1015.8 |
| 20260508102737 | 58 | 234 | 1.0 | 3.0 | 0.00 | 0.00 | 0.00 | 86 | 1015.8 |
| 20260508102236 | 58 | 234 | 1.0 | 3.0 | 0.00 | 0.00 | 0.00 | 86 | 1015.8 |
| 20260508102007 | 58 | 234 | 2.0 | 4.0 | 0.00 | 0.00 | 0.00 | 86 | 1015.8 |
| 20260508101236 | 58 | 234 | 2.0 | 4.0 | 0.00 | 0.00 | 0.00 | 86 | 1015.8 |
| 20260508100736 | 58 | 234 | 1.0 | 4.0 | 0.00 | 0.00 | 0.00 | 86 | 1015.8 |
| 20260508100237 | 58 | 234 | 1.0 | 4.0 | 0.00 | 0.00 | 0.00 | 86 | 1015.8 |
| 20260508095730 | 58 | 234 | 1.0 | 3.0 | 0.00 | 0.00 | 0.00 | 86 | 1015.7 |
| 20260508095230 | 58 | 234 | 1.0 | 3.0 | 0.00 | 0.00 | 0.00 | 86 | 1015.7 |
| 20260508094731 | 58 | 234 | 1.0 | 4.0 | 0.00 | 0.00 | 0.00 | 86 | 1015.7 |
| 20260508094232 | 58 | 234 | 2.0 | 4.0 | 0.00 | 0.00 | 0.00 | 85 | 1015.7 |
| 20260508093730 | 58 | 234 | 1.0 | 3.0 | 0.00 | 0.00 | 0.00 | 85 | 1015.8 |
| 20260508093501 | 59 | 234 | 1.0 | 3.0 | 0.00 | 0.00 | 0.00 | 85 | 1015.8 |
| 20260508092730 | 59 | 234 | 1.0 | 3.0 | 0.00 | 0.00 | 0.00 | 85 | 1015.8 |
| 20260508092231 | 59 | 234 | 1.0 | 3.0 | 0.00 | 0.00 | 0.00 | 85 | 1015.8 |
| 20260508091731 | 59 | 234 | 1.0 | 3.0 | 0.00 | 0.00 | 0.00 | 85 | 1015.8 |
| 20260508091231 | 59 | 234 | 1.0 | 2.0 | 0.00 | 0.00 | 0.00 | 85 | 1015.8 |
| 20260508090728 | 59 | 234 | 1.0 | 3.0 | 0.00 | 0.00 | 0.00 | 84 | 1015.8 |
| 20260508090228 | 59 | 234 | 1.0 | 3.0 | 0.00 | 0.00 | 0.00 | 84 | 1015.8 |
| 20260508085226 | 59 | 234 | 1.0 | 2.0 | 0.00 | 0.00 | 0.00 | 84 | 1015.9 |
| 20260508084727 | 60 | 234 | 1.0 | 4.0 | 0.00 | 0.00 | 0.00 | 84 | 1016.0 |
| 20260508084226 | 60 | 234 | 1.0 | 4.0 | 0.00 | 0.00 | 0.00 | 84 | 1016.0 |
| 20260508083727 | 60 | 234 | 1.0 | 4.0 | 0.00 | 0.00 | 0.00 | 83 | 1016.0 |
| 20260508083458 | 60 | 234 | 1.0 | 3.0 | 0.00 | 0.00 | 0.00 | 83 | 1016.1 |
| 20260508082726 | 60 | 234 | 0.0 | 3.0 | 0.00 | 0.00 | 0.00 | 83 | 1016.2 |
| 20260508082223 | 60 | 234 | 0.0 | 2.0 | 0.00 | 0.00 | 0.00 | 83 | 1016.2 |
| 20260508081723 | 60 | 234 | 0.0 | 3.0 | 0.00 | 0.00 | 0.00 | 83 | 1016.2 |
| 20260508081221 | 60 | 234 | 1.0 | 3.0 | 0.00 | 0.00 | 0.00 | 83 | 1016.2 |
| 20260508080722 | 60 | 234 | 1.0 | 4.0 | 0.00 | 0.00 | 0.00 | 83 | 1016.3 |
| 20260508080450 | 60 | 234 | 1.0 | 4.0 | 0.00 | 0.00 | 0.00 | 83 | 1016.2 |
| 20260508075717 | 60 | 234 | 2.0 | 5.0 | 0.00 | 0.00 | 0.00 | 82 | 1016.2 |
| 20260508075216 | 60 | 234 | 2.0 | 5.0 | 0.00 | 0.00 | 0.00 | 82 | 1016.3 |
| 20260508074448 | 60 | 234 | 2.0 | 4.0 | 0.00 | 0.00 | 0.00 | 82 | 1016.3 |
| 20260508073715 | 60 | 234 | 1.0 | 4.0 | 0.00 | 0.00 | 0.00 | 81 | 1016.4 |
| 20260508073214 | 60 | 234 | 1.0 | 2.0 | 0.00 | 0.00 | 0.00 | 81 | 1016.3 |
| 20260508072715 | 61 | 234 | 0.0 | 3.0 | 0.00 | 0.00 | 0.00 | 81 | 1016.3 |
| 20260508072212 | 61 | 234 | 1.0 | 3.0 | 0.00 | 0.00 | 0.00 | 81 | 1016.3 |
| 20260508071712 | 61 | 234 | 1.0 | 3.0 | 0.00 | 0.00 | 0.00 | 81 | 1016.4 |
| 20260508071213 | 61 | 234 | 1.0 | 3.0 | 0.00 | 0.00 | 0.00 | 80 | 1016.4 |
| 20260508070712 | 61 | 234 | 2.0 | 4.0 | 0.00 | 0.00 | 0.00 | 80 | 1016.3 |
| 20260508070208 | 61 | 234 | 2.0 | 4.0 | 0.00 | 0.00 | 0.00 | 80 | 1016.3 |
| 20260508065941 | 61 | 234 | 2.0 | 4.0 | 0.00 | 0.00 | 0.00 | 80 | 1016.3 |
| 20260508065207 | 61 | 234 | 2.0 | 4.0 | 0.00 | 0.00 | 0.00 | 80 | 1016.3 |
| 20260508064938 | 61 | 234 | 2.0 | 3.0 | 0.00 | 0.00 | 0.00 | 80 | 1016.2 |
| 20260508064205 | 61 | 234 | 2.0 | 3.0 | 0.00 | 0.00 | 0.00 | 80 | 1016.2 |
| 20260508063937 | 62 | 234 | 1.0 | 3.0 | 0.00 | 0.00 | 0.00 | 79 | 1016.2 |
| 20260508063206 | 62 | 234 | 2.0 | 4.0 | 0.00 | 0.00 | 0.00 | 79 | 1016.2 |
| 20260508062704 | 62 | 234 | 2.0 | 5.0 | 0.00 | 0.00 | 0.00 | 79 | 1016.2 |
| 20260508062206 | 62 | 234 | 3.0 | 5.0 | 0.00 | 0.00 | 0.00 | 78 | 1016.2 |
| 20260508061936 | 62 | 234 | 3.0 | 7.0 | 0.00 | 0.00 | 0.00 | 78 | 1016.2 |
| 20260508061207 | 62 | 234 | 4.0 | 7.0 | 0.00 | 0.00 | 0.00 | 78 | 1016.2 |
| 20260508060705 | 62 | 234 | 4.0 | 7.0 | 0.00 | 0.00 | 0.00 | 78 | 1016.1 |
| 20260508060205 | 63 | 234 | 3.0 | 7.0 | 0.00 | 0.00 | 0.00 | 77 | 1016.1 |
| 20260508055705 | 63 | 236 | 3.0 | 6.0 | 0.00 | 0.00 | 0.00 | 77 | 1016.1 |
| 20260508055437 | 63 | 236 | 3.0 | 6.0 | 0.00 | 0.00 | 0.00 | 76 | 1016.1 |
| 20260508054705 | 63 | 236 | 3.0 | 7.0 | 0.00 | 0.00 | 0.00 | 76 | 1016.2 |
| 20260508054206 | 63 | 236 | 4.0 | 7.0 | 0.00 | 0.00 | 0.00 | 76 | 1016.1 |
| 20260508053706 | 64 | 236 | 4.0 | 8.0 | 0.00 | 0.00 | 0.00 | 76 | 1016.1 |
| 20260508053204 | 64 | 235 | 3.0 | 8.0 | 0.00 | 0.00 | 0.00 | 75 | 1016.1 |
| 20260508052701 | 64 | 234 | 3.0 | 6.0 | 0.00 | 0.00 | 0.00 | 74 | 1016.1 |
| 20260508052202 | 64 | 234 | 3.0 | 6.0 | 0.00 | 0.00 | 0.00 | 74 | 1016.0 |
| 20260508051930 | 65 | 234 | 4.0 | 7.0 | 0.00 | 0.00 | 0.00 | 74 | 1016.0 |
| 20260508051200 | 65 | 234 | 4.0 | 7.0 | 0.00 | 0.00 | 0.00 | 73 | 1015.9 |
| 20260508050656 | 65 | 234 | 4.0 | 7.0 | 0.00 | 0.00 | 0.00 | 73 | 1015.9 |
| 20260508050158 | 65 | 236 | 4.0 | 7.0 | 0.00 | 0.00 | 0.00 | 73 | 1015.9 |
| 20260508045658 | 65 | 238 | 4.0 | 7.0 | 0.00 | 0.00 | 0.00 | 72 | 1015.9 |
| 20260508045155 | 66 | 238 | 4.0 | 8.0 | 0.00 | 0.00 | 0.00 | 72 | 1015.9 |
| 20260508044653 | 66 | 238 | 4.0 | 8.0 | 0.00 | 0.00 | 0.00 | 72 | 1015.8 |
| 20260508044153 | 66 | 242 | 4.0 | 7.0 | 0.00 | 0.00 | 0.00 | 72 | 1015.7 |
| 20260508043654 | 66 | 244 | 4.0 | 7.0 | 0.00 | 0.00 | 0.00 | 71 | 1015.7 |
| 20260508043153 | 66 | 248 | 4.0 | 7.0 | 0.00 | 0.00 | 0.00 | 71 | 1015.7 |
| 20260508042652 | 66 | 250 | 5.0 | 8.0 | 0.00 | 0.00 | 0.00 | 70 | 1015.6 |
| 20260508042150 | 67 | 252 | 5.0 | 10.0 | 0.00 | 0.00 | 0.00 | 70 | 1015.6 |
| 20260508041650 | 67 | 259 | 4.0 | 10.0 | 0.00 | 0.00 | 0.00 | 70 | 1015.5 |
| 20260508041149 | 67 | 238 | 4.0 | 8.0 | 0.00 | 0.00 | 0.00 | 70 | 1015.4 |
| 20260508040642 | 67 | 238 | 4.0 | 9.0 | 0.00 | 0.00 | 0.00 | 69 | 1015.3 |
| 20260508040138 | 67 | 252 | 4.0 | 9.0 | 0.00 | 0.00 | 0.00 | 69 | 1015.2 |
| 20260508035637 | 67 | 255 | 5.0 | 10.0 | 0.00 | 0.00 | 0.00 | 69 | 1015.2 |
| 20260508035137 | 67 | 248 | 5.0 | 10.0 | 0.00 | 0.00 | 0.00 | 69 | 1015.2 |
| 20260508034636 | 68 | 234 | 5.0 | 10.0 | 0.00 | 0.00 | 0.00 | 69 | 1015.1 |
| 20260508034135 | 68 | 225 | 4.0 | 8.0 | 0.00 | 0.00 | 0.00 | 68 | 1015.0 |
| 20260508033635 | 68 | 225 | 5.0 | 9.0 | 0.00 | 0.00 | 0.00 | 68 | 1014.9 |
| 20260508033135 | 68 | 225 | 5.0 | 9.0 | 0.00 | 0.00 | 0.00 | 68 | 1014.9 |
| 20260508032636 | 68 | 226 | 5.0 | 9.0 | 0.00 | 0.00 | 0.00 | 67 | 1014.8 |
| 20260508032135 | 69 | 225 | 5.0 | 10.0 | 0.00 | 0.00 | 0.00 | 67 | 1014.7 |
| 20260508031635 | 69 | 223 | 5.0 | 10.0 | 0.00 | 0.00 | 0.00 | 67 | 1014.7 |
| 20260508031131 | 69 | 223 | 6.0 | 9.0 | 0.00 | 0.00 | 0.00 | 66 | 1014.6 |
| 20260508030632 | 69 | 222 | 5.0 | 9.0 | 0.00 | 0.00 | 0.00 | 66 | 1014.6 |
| 20260508030131 | 69 | 221 | 4.0 | 8.0 | 0.00 | 0.00 | 0.00 | 65 | 1014.6 |
| 20260508025129 | 70 | 217 | 3.0 | 7.0 | 0.00 | 0.00 | 0.00 | 64 | 1014.4 |
| 20260508024628 | 70 | 217 | 4.0 | 7.0 | 0.00 | 0.00 | 0.00 | 64 | 1014.3 |
| 20260508024125 | 70 | 217 | 4.0 | 7.0 | 0.00 | 0.00 | 0.00 | 63 | 1014.3 |
| 20260508023857 | 71 | 218 | 4.0 | 8.0 | 0.00 | 0.00 | 0.00 | 63 | 1014.2 |
| 20260508023123 | 71 | 217 | 5.0 | 8.0 | 0.00 | 0.00 | 0.00 | 62 | 1014.2 |
| 20260508022855 | 71 | 212 | 5.0 | 7.0 | 0.00 | 0.00 | 0.00 | 62 | 1014.1 |
| 20260508022121 | 71 | 201 | 6.0 | 9.0 | 0.00 | 0.00 | 0.00 | 62 | 1014.0 |
| 20260508021852 | 71 | 202 | 6.0 | 13.0 | 0.00 | 0.00 | 0.00 | 61 | 1014.0 |
| 20260508021122 | 72 | 223 | 6.0 | 13.0 | 0.00 | 0.00 | 0.00 | 60 | 1014.0 |
| 20260508020620 | 72 | 192 | 6.0 | 11.0 | 0.00 | 0.00 | 0.00 | 60 | 1013.9 |
| 20260508020117 | 73 | 202 | 6.0 | 10.0 | 0.00 | 0.00 | 0.00 | 59 | 1013.8 |
| 20260508015617 | 73 | 190 | 7.0 | 11.0 | 0.00 | 0.00 | 0.00 | 58 | 1013.8 |
| 20260508015113 | 74 | 215 | 7.0 | 11.0 | 0.00 | 0.00 | 0.00 | 58 | 1013.7 |
| 20260508014612 | 74 | 214 | 7.0 | 12.0 | 0.00 | 0.00 | 0.00 | 57 | 1013.7 |
| 20260508014344 | 75 | 213 | 7.0 | 13.0 | 0.00 | 0.00 | 0.00 | 56 | 1013.7 |
| 20260508013609 | 75 | 219 | 6.0 | 13.0 | 0.00 | 0.00 | 0.00 | 55 | 1013.5 |
| 20260508013341 | 76 | 215 | 6.0 | 11.0 | 0.00 | 0.00 | 0.00 | 55 | 1013.5 |
| 20260508012609 | 76 | 217 | 6.0 | 10.0 | 0.00 | 0.00 | 0.00 | 54 | 1013.5 |
| 20260508012107 | 76 | 214 | 7.0 | 13.0 | 0.00 | 0.00 | 0.00 | 54 | 1013.5 |
| 20260508011838 | 76 | 211 | 8.0 | 13.0 | 0.00 | 0.00 | 0.00 | 53 | 1013.4 |
| 20260508011105 | 77 | 215 | 7.0 | 13.0 | 0.00 | 0.00 | 0.00 | 52 | 1013.3 |
| 20260508010605 | 77 | 217 | 7.0 | 12.0 | 0.00 | 0.00 | 0.00 | 52 | 1013.3 |
| 20260508010107 | 77 | 206 | 7.0 | 13.0 | 0.00 | 0.00 | 0.00 | 52 | 1013.3 |
| 20260508005603 | 77 | 225 | 7.0 | 13.0 | 0.00 | 0.00 | 0.00 | 51 | 1013.3 |
| 20260508005335 | 78 | 218 | 7.0 | 15.0 | 0.00 | 0.00 | 0.00 | 51 | 1013.3 |
| 20260508004604 | 78 | 222 | 8.0 | 15.0 | 0.00 | 0.00 | 0.00 | 50 | 1013.2 |
| 20260508004103 | 78 | 219 | 8.0 | 13.0 | 0.00 | 0.00 | 0.00 | 50 | 1013.1 |
| 20260508003833 | 78 | 225 | 8.0 | 13.0 | 0.00 | 0.00 | 0.00 | 49 | 1013.2 |
| 20260508003059 | 78 | 217 | 8.0 | 14.0 | 0.00 | 0.00 | 0.00 | 48 | 1013.2 |
| 20260508002600 | 79 | 221 | 8.0 | 14.0 | 0.00 | 0.00 | 0.00 | 48 | 1013.1 |
| 20260508002058 | 79 | 220 | 8.0 | 14.0 | 0.00 | 0.00 | 0.00 | 47 | 1013.1 |
| 20260508001557 | 80 | 219 | 7.0 | 14.0 | 0.00 | 0.00 | 0.00 | 47 | 1013.2 |
| 20260508001055 | 80 | 207 | 8.0 | 14.0 | 0.00 | 0.00 | 0.00 | 46 | 1013.1 |
| 20260508000608 | 79 | 246 | 9.0 | 18.0 | 0.00 | 0.00 | 0.00 | 47 | 1013.1 |
| 20260508000107 | 79 | 229 | 10.0 | 18.0 | 0.00 | 0.00 | 0.00 | 47 | 1013.1 |
| 20260507235551 | 80 | 221 | 9.0 | 18.0 | 0.00 | 0.00 | 0.00 | 47 | 1013.0 |
| 20260507235052 | 80 | 236 | 10.0 | 18.0 | 0.00 | 0.00 | 0.00 | 47 | 1013.1 |
| 20260507234552 | 80 | 232 | 10.0 | 18.0 | 0.00 | 0.00 | 0.00 | 46 | 1013.1 |
| 20260507234052 | 80 | 229 | 10.0 | 18.0 | 0.00 | 0.00 | 0.00 | 46 | 1013.1 |
| 20260507233548 | 80 | 206 | 9.0 | 17.0 | 0.00 | 0.00 | 0.00 | 46 | 1013.1 |
| 20260507233047 | 80 | 221 | 9.0 | 18.0 | 0.00 | 0.00 | 0.00 | 46 | 1013.2 |
| 20260507232547 | 80 | 221 | 10.0 | 18.0 | 0.00 | 0.00 | 0.00 | 46 | 1013.1 |
| 20260507232043 | 80 | 218 | 11.0 | 18.0 | 0.00 | 0.00 | 0.00 | 46 | 1013.0 |
| 20260507231543 | 81 | 176 | 9.0 | 18.0 | 0.00 | 0.00 | 0.00 | 45 | 1013.1 |
| 20260507231043 | 81 | 243 | 9.0 | 17.0 | 0.00 | 0.00 | 0.00 | 45 | 1013.1 |
| 20260507230541 | 81 | 235 | 10.0 | 17.0 | 0.00 | 0.00 | 0.00 | 45 | 1013.1 |
| 20260507230326 | 81 | 212 | 10.0 | 16.0 | 0.00 | 0.00 | 0.00 | 45 | 1013.0 |
| 20260507225542 | 81 | 207 | 10.0 | 17.0 | 0.00 | 0.00 | 0.00 | 45 | 1013.1 |
| 20260507225041 | 82 | 223 | 9.0 | 17.0 | 0.00 | 0.00 | 0.00 | 44 | 1013.1 |
| 20260507224541 | 82 | 229 | 9.0 | 15.0 | 0.00 | 0.00 | 0.00 | 45 | 1013.1 |
| 20260507224041 | 82 | 217 | 9.0 | 18.0 | 0.00 | 0.00 | 0.00 | 45 | 1013.1 |
| 20260507223542 | 82 | 229 | 9.0 | 18.0 | 0.00 | 0.00 | 0.00 | 45 | 1013.2 |
| 20260507223041 | 82 | 219 | 9.0 | 17.0 | 0.00 | 0.00 | 0.00 | 45 | 1013.1 |
| 20260507222542 | 82 | 217 | 9.0 | 17.0 | 0.00 | 0.00 | 0.00 | 45 | 1013.2 |
| 20260507222042 | 82 | 222 | 9.0 | 16.0 | 0.00 | 0.00 | 0.00 | 45 | 1013.2 |
| 20260507221541 | 83 | 225 | 10.0 | 16.0 | 0.00 | 0.00 | 0.00 | 45 | 1013.3 |
| 20260507221041 | 83 | 217 | 9.0 | 15.0 | 0.00 | 0.00 | 0.00 | 45 | 1013.4 |
| 20260507220826 | 83 | 215 | 9.0 | 16.0 | 0.00 | 0.00 | 0.00 | 45 | 1013.4 |
| 20260507220038 | 83 | 216 | 9.0 | 17.0 | 0.00 | 0.00 | 0.00 | 45 | 1013.5 |
| 20260507215550 | 83 | 214 | 9.0 | 17.0 | 0.00 | 0.00 | 0.00 | 45 | 1013.5 |
| 20260507215038 | 84 | 215 | 8.0 | 15.0 | 0.00 | 0.00 | 0.00 | 44 | 1013.6 |
| 20260507214537 | 84 | 200 | 8.0 | 14.0 | 0.00 | 0.00 | 0.00 | 43 | 1013.6 |
| 20260507214038 | 84 | 218 | 8.0 | 16.0 | 0.00 | 0.00 | 0.00 | 43 | 1013.8 |
| 20260507213537 | 84 | 237 | 7.0 | 16.0 | 0.00 | 0.00 | 0.00 | 42 | 1013.8 |
| 20260507213038 | 84 | 223 | 7.0 | 16.0 | 0.00 | 0.00 | 0.00 | 43 | 1013.8 |
| 20260507212037 | 84 | 226 | 7.0 | 16.0 | 0.00 | 0.00 | 0.00 | 41 | 1013.9 |
| 20260507211535 | 85 | 218 | 7.0 | 15.0 | 0.00 | 0.00 | 0.00 | 41 | 1013.9 |
| 20260507211036 | 85 | 232 | 7.0 | 13.0 | 0.00 | 0.00 | 0.00 | 41 | 1013.9 |
| 20260507210534 | 84 | 209 | 8.0 | 13.0 | 0.00 | 0.00 | 0.00 | 41 | 1014.0 |
| 20260507210035 | 84 | 254 | 9.0 | 15.0 | 0.00 | 0.00 | 0.00 | 42 | 1014.1 |
| 20260507205536 | 84 | 218 | 8.0 | 15.0 | 0.00 | 0.00 | 0.00 | 41 | 1014.1 |
| 20260507205035 | 84 | 223 | 7.0 | 14.0 | 0.00 | 0.00 | 0.00 | 42 | 1014.1 |
| 20260507204535 | 83 | 229 | 7.0 | 14.0 | 0.00 | 0.00 | 0.00 | 41 | 1014.1 |
| 20260507204036 | 84 | 224 | 7.0 | 14.0 | 0.00 | 0.00 | 0.00 | 40 | 1014.2 |
| 20260507203535 | 84 | 217 | 6.0 | 15.0 | 0.00 | 0.00 | 0.00 | 41 | 1014.2 |
| 20260507203035 | 84 | 249 | 6.0 | 15.0 | 0.00 | 0.00 | 0.00 | 41 | 1014.3 |
| 20260507202535 | 83 | 234 | 7.0 | 11.0 | 0.00 | 0.00 | 0.00 | 42 | 1014.3 |
| 20260507202035 | 83 | 222 | 6.0 | 15.0 | 0.00 | 0.00 | 0.00 | 43 | 1014.4 |
| 20260507201535 | 83 | 211 | 6.0 | 15.0 | 0.00 | 0.00 | 0.00 | 42 | 1014.4 |
| 20260507201035 | 83 | 218 | 6.0 | 12.0 | 0.00 | 0.00 | 0.00 | 42 | 1014.5 |
| 20260507200536 | 83 | 234 | 6.0 | 12.0 | 0.00 | 0.00 | 0.00 | 41 | 1014.6 |
| 20260507200031 | 83 | 248 | 6.0 | 12.0 | 0.00 | 0.00 | 0.00 | 41 | 1014.7 |
| 20260507195532 | 83 | 234 | 6.0 | 11.0 | 0.00 | 0.00 | 0.00 | 42 | 1014.7 |
| 20260507195031 | 83 | 235 | 6.0 | 12.0 | 0.00 | 0.00 | 0.00 | 41 | 1014.8 |
| 20260507194527 | 82 | 264 | 5.0 | 12.0 | 0.00 | 0.00 | 0.00 | 43 | 1014.8 |
| 20260507194026 | 82 | 240 | 6.0 | 12.0 | 0.00 | 0.00 | 0.00 | 42 | 1014.9 |
| 20260507193528 | 82 | 239 | 5.0 | 12.0 | 0.00 | 0.00 | 0.00 | 43 | 1014.9 |
| 20260507193021 | 81 | 237 | 5.0 | 10.0 | 0.00 | 0.00 | 0.00 | 44 | 1015.0 |
| 20260507192521 | 80 | 234 | 5.0 | 10.0 | 0.00 | 0.00 | 0.00 | 43 | 1015.1 |
| 20260507192021 | 80 | 223 | 5.0 | 10.0 | 0.00 | 0.00 | 0.00 | 44 | 1015.1 |
| 20260507191521 | 80 | 224 | 5.0 | 10.0 | 0.00 | 0.00 | 0.00 | 44 | 1015.3 |
| 20260507191021 | 80 | 236 | 5.0 | 11.0 | 0.00 | 0.00 | 0.00 | 45 | 1015.3 |
| 20260507190521 | 80 | 234 | 6.0 | 11.0 | 0.00 | 0.00 | 0.00 | 45 | 1015.4 |
| 20260507190024 | 80 | 224 | 4.0 | 10.0 | 0.00 | 0.00 | 0.00 | 44 | 1015.5 |
| 20260507185519 | 80 | 219 | 3.0 | 7.0 | 0.00 | 0.00 | 0.00 | 46 | 1015.6 |
| 20260507185020 | 79 | 218 | 4.0 | 9.0 | 0.00 | 0.00 | 0.00 | 47 | 1015.7 |
| 20260507184517 | 78 | 222 | 4.0 | 11.0 | 0.00 | 0.00 | 0.00 | 47 | 1015.8 |
| 20260507184018 | 78 | 227 | 4.0 | 11.0 | 0.00 | 0.00 | 0.00 | 48 | 1015.8 |
| 20260507183517 | 77 | 229 | 4.0 | 8.0 | 0.00 | 0.00 | 0.00 | 47 | 1015.8 |
| 20260507183018 | 77 | 234 | 3.0 | 8.0 | 0.00 | 0.00 | 0.00 | 48 | 1015.9 |
| 20260507182516 | 76 | 238 | 4.0 | 8.0 | 0.00 | 0.00 | 0.00 | 48 | 1015.9 |
| 20260507182013 | 76 | 238 | 4.0 | 8.0 | 0.00 | 0.00 | 0.00 | 48 | 1016.0 |
| 20260507181513 | 76 | 250 | 4.0 | 8.0 | 0.00 | 0.00 | 0.00 | 48 | 1016.0 |
| 20260507181011 | 76 | 249 | 4.0 | 8.0 | 0.00 | 0.00 | 0.00 | 49 | 1016.1 |
| 20260507180508 | 75 | 240 | 4.0 | 7.0 | 0.00 | 0.00 | 0.00 | 48 | 1016.2 |
| 20260507180009 | 76 | 242 | 3.0 | 7.0 | 0.00 | 0.00 | 0.00 | 48 | 1016.2 |
| 20260507175508 | 75 | 244 | 2.0 | 6.0 | 0.00 | 0.00 | 0.00 | 50 | 1016.3 |
| 20260507175007 | 75 | 244 | 3.0 | 7.0 | 0.00 | 0.00 | 0.00 | 50 | 1016.3 |
| 20260507174738 | 74 | 244 | 3.0 | 7.0 | 0.00 | 0.00 | 0.00 | 51 | 1016.3 |
| 20260507174007 | 74 | 254 | 3.0 | 7.0 | 0.00 | 0.00 | 0.00 | 52 | 1016.3 |
| 20260507173506 | 73 | 256 | 2.0 | 7.0 | 0.00 | 0.00 | 0.00 | 53 | 1016.3 |
| 20260507173003 | 73 | 262 | 2.0 | 6.0 | 0.00 | 0.00 | 0.00 | 54 | 1016.4 |
| 20260507172504 | 72 | 262 | 3.0 | 6.0 | 0.00 | 0.00 | 0.00 | 54 | 1016.4 |
| 20260507172001 | 72 | 262 | 2.0 | 6.0 | 0.00 | 0.00 | 0.00 | 55 | 1016.3 |
| 20260507171459 | 72 | 268 | 1.0 | 5.0 | 0.00 | 0.00 | 0.00 | 56 | 1016.4 |
| 20260507171000 | 71 | 267 | 2.0 | 5.0 | 0.00 | 0.00 | 0.00 | 56 | 1016.5 |
| 20260507170727 | 71 | 268 | 2.0 | 5.0 | 0.00 | 0.00 | 0.00 | 58 | 1016.5 |
| 20260507165955 | 71 | 268 | 3.0 | 6.0 | 0.00 | 0.00 | 0.00 | 58 | 1016.5 |
| 20260507165456 | 71 | 268 | 3.0 | 6.0 | 0.00 | 0.00 | 0.00 | 59 | 1016.5 |
| 20260507165227 | 70 | 271 | 3.0 | 5.0 | 0.00 | 0.00 | 0.00 | 60 | 1016.4 |
| 20260507164455 | 70 | 271 | 3.0 | 6.0 | 0.00 | 0.00 | 0.00 | 59 | 1016.5 |
| 20260507164227 | 69 | 271 | 2.0 | 6.0 | 0.00 | 0.00 | 0.00 | 61 | 1016.6 |
| 20260507163455 | 69 | 273 | 2.0 | 6.0 | 0.00 | 0.00 | 0.00 | 62 | 1016.6 |
| 20260507162951 | 69 | 274 | 2.0 | 5.0 | 0.00 | 0.00 | 0.00 | 61 | 1016.6 |
| 20260507162452 | 68 | 275 | 2.0 | 4.0 | 0.00 | 0.00 | 0.00 | 63 | 1016.6 |
| 20260507161948 | 68 | 275 | 3.0 | 6.0 | 0.00 | 0.00 | 0.00 | 62 | 1016.6 |
| 20260507161446 | 68 | 276 | 3.0 | 6.0 | 0.00 | 0.00 | 0.00 | 63 | 1016.6 |
| 20260507160947 | 67 | 278 | 2.0 | 4.0 | 0.00 | 0.00 | 0.00 | 65 | 1016.6 |
| 20260507160446 | 67 | 278 | 1.0 | 5.0 | 0.00 | 0.00 | 0.00 | 66 | 1016.5 |
| 20260507155945 | 67 | 279 | 2.0 | 5.0 | 0.00 | 0.00 | 0.00 | 66 | 1016.6 |
| 20260507155440 | 66 | 234 | 2.0 | 5.0 | 0.00 | 0.00 | 0.00 | 67 | 1016.6 |
| 20260507154941 | 66 | 234 | 2.0 | 5.0 | 0.00 | 0.00 | 0.00 | 68 | 1016.6 |
| 20260507154712 | 65 | 234 | 2.0 | 4.0 | 0.00 | 0.00 | 0.00 | 70 | 1016.9 |
| 20260507153939 | 65 | 234 | 1.0 | 4.0 | 0.00 | 0.00 | 0.00 | 70 | 1016.9 |
| 20260507153439 | 65 | 235 | 1.0 | 4.0 | 0.00 | 0.00 | 0.00 | 72 | 1016.9 |
| 20260507152939 | 64 | 235 | 2.0 | 4.0 | 0.00 | 0.00 | 0.00 | 72 | 1016.9 |
| 20260507152708 | 64 | 235 | 1.0 | 4.0 | 0.00 | 0.00 | 0.00 | 72 | 1016.9 |
| 20260507151938 | 63 | 235 | 1.0 | 4.0 | 0.00 | 0.00 | 0.00 | 74 | 1017.0 |
| 20260507151437 | 63 | 235 | 2.0 | 4.0 | 0.00 | 0.00 | 0.00 | 74 | 1016.9 |
| 20260507150937 | 63 | 235 | 2.0 | 5.0 | 0.00 | 0.00 | 0.00 | 75 | 1017.0 |
| 20260507150437 | 62 | 235 | 2.0 | 5.0 | 0.00 | 0.00 | 0.00 | 75 | 1016.9 |
| 20260507150209 | 62 | 234 | 2.0 | 4.0 | 0.00 | 0.00 | 0.00 | 75 | 1016.9 |
| 20260507145438 | 62 | 235 | 1.0 | 4.0 | 0.00 | 0.00 | 0.00 | 76 | 1016.9 |
| 20260507144938 | 62 | 238 | 1.0 | 4.0 | 0.00 | 0.00 | 0.00 | 76 | 1016.8 |
| 20260507144437 | 62 | 238 | 1.0 | 3.0 | 0.00 | 0.00 | 0.00 | 77 | 1016.8 |
| 20260507143937 | 62 | 238 | 0.0 | 2.0 | 0.00 | 0.00 | 0.00 | 78 | 1016.8 |
| 20260507143707 | 61 | 238 | 0.0 | 2.0 | 0.00 | 0.00 | 0.00 | 78 | 1016.6 |
| 20260507142935 | 61 | 239 | 0.0 | 1.0 | 0.00 | 0.00 | 0.00 | 79 | 1016.6 |
| 20260507142435 | 61 | 220 | 0.0 | 0.0 | 0.00 | 0.00 | 0.00 | 79 | 1016.8 |
| 20260507141935 | 61 | 220 | 0.0 | 0.0 | 0.00 | 0.00 | 0.00 | 81 | 1016.6 |
| 20260507141435 | 60 | 220 | 0.0 | 0.0 | 0.00 | 0.00 | 0.00 | 82 | 1016.6 |
| 20260507140935 | 60 | 220 | 0.0 | 0.0 | 0.00 | 0.00 | 0.00 | 82 | 1016.5 |
| 20260507140435 | 59 | 220 | 0.0 | 0.0 | 0.00 | 0.00 | 0.00 | 82 | 1016.5 |
| 20260507135936 | 59 | 220 | 0.0 | 0.0 | 0.00 | 0.00 | 0.00 | 83 | 1016.4 |
| 20260507135706 | 58 | 220 | 0.0 | 0.0 | 0.00 | 0.00 | 0.00 | 83 | 1016.4 |
| 20260507134936 | 58 | 220 | 0.0 | 0.0 | 0.00 | 0.00 | 0.00 | 83 | 1016.4 |
| 20260507134434 | 57 | 220 | 0.0 | 0.0 | 0.00 | 0.00 | 0.00 | 83 | 1016.3 |